Zurück zum Katalog

GLOBALSTAR M084

AktivKommunikationLEO
NORAD 38040·PAYLOAD·🇺🇸 United States

Gestartet Dec 28, 2011 von Baikonur Cosmodrome

Loading…

Nächste Überflüge (nächste 24 Stunden)

TLE

AktuellSource: Space-Track

Epoche: Sep 14, 2026, 07:05 UTC

1 38040U 11080A   26257.29537220 -.00000098  00000-0  31323-4 0  9991
2 38040  51.9994 106.0049 0000526  70.0884 101.4520 12.62264121680019

Verfolge GLOBALSTAR M084 in Echtzeit mit AllMySat

Download on the App Store